Bluefields Airport
MNBL : now visible

Airfield :











YOU CAN JOIN US ON...

 
LOGIN :

Register | Disclaimer

   EN    FR    IT 

 









Legend :    VFR   Marginal VFR   IFR   Intensive IFR   Very Intensive IFR
Visi :
Ceiling :
>= 8 km
>= 3000ft
5 to 8 km
1000 to 3000 ft
1500m to 5 km
500 to 1000 ft
800 to 1500m
200 to 500 ft
< 800m
< 200 ft
Symbols :   Thunderstorms  Fog  Heavy snow  Heavy precipitations  Wind > 20 kt






- Airport Elevation : 20 ft
- IATA code : BEF


MNBL - Bluefields

CURRENT METAR :
  • 272100Z 00000KT 5000 TSRA SCT017CB SCT070 26/25 Q1008 CB/S/SW/W

EXPIRED METARs :
  • 272000Z 11004KT 4000 TSRA SCT017CB SCT070 26/25 Q1008 CB/E/SE/S
  • 271900Z 11004KT 8000 TS SCT017CB SCT070 30/25 Q1009 CBRA/E/SE/S

TAF MNBL
Valid from the 27 at 18:00 until the 28 at 18:00 UTC


271720Z 2718/2818 VRB04KT 8000 -TSRA FEW017CB SCT070
TEMPO 2720/2802 14006KT 5000 TSRA/DZ SCT017CB SCT060
MHTG FIR / North America



MET'MAP, your aeronautical weather chart ! - Copyright ORBIFLY December 2007 - Disclaimer

ORBIFLY MET'MAP TEAM :

Programming & Development : Alexandra Zaïnal
Concept & original design : Baudouin d'Aumeries
Assistance for programming : Marc-Olivier Méhu
Technical & hardware support : Manuel Goepfert

Contact : metmap@orbifly.com




SOURCES & CREDITS :

   NOAA       Earth
Advisory